Weather History for KIML - February, 2011

Change the Weather History Date:

Sunday, February 13, 2011

  Actual Average Record
Temperature  
Mean Temperature 51 °F 31 °F  
Max Temperature 72 °F 44 °F 72 °F (2011)
Min Temperature 29 °F 18 °F -24 °F (1905)
Degree Days  
Heating Degree Days 14 34  
Month to date heating degree days 536 456  
Cooling Degree Days 0 0  
Month to date cooling degree days 0 0  
Year to date cooling degree days 0 0  
Moisture  
Dew Point 23 °F    
Average Humidity 46    
Maximum Humidity 78    
Minimum Humidity 13    
Precipitation  
Precipitation 0.00 in 0.01 in 0.45 in (1930)
Sea Level Pressure  
Sea Level Pressure 29.99 in    
Wind  
Wind Speed 13 mph (WNW)    
Max Wind Speed 32 mph    
Max Gust Speed 41 mph    
Visibility 10 miles    
Events      
T = Trace of Precipitation, MM = Missing Value Source: NWS Daily Summary

Daily Weather History Graph

Daily Weather History Graph

Search for Another Location

Airport or City:

Trip Planner

Search our weather history database for the weather conditions in past years. The results will help you decide how hot, cold, wet, or windy it might be!

Date:

Astronomy

Feb. 13, 2011 Rise Set
Actual Time 6:42 AM MST 5:19 PM MST
Civil Twilight 6:14 AM MST 5:47 PM MST
Nautical Twilight 5:42 AM MST 6:19 PM MST
Astronomical Twilight 5:11 AM MST 6:50 PM MST
Moon 12:18 PM MST (2/13) 2:55 AM MST (2/13)
Length of Visible Light 11h 32m
Length of Day
10h 36m
Waxing Gibbous, 74% of the Moon is Illuminated
Feb 13
Waxing Gibbous
Feb 18
Full
Feb 24
Last Quarter
Mar 4
New
Mar 12
First Quarter

Hourly Weather History & Observations

Time (MST) Temp. Windchill Dew Point Humidity Pressure Visibility Wind Dir Wind Speed Gust Speed Precip Events Conditions
12:53 AM 35.1 °F 27.4 °F 25.0 °F 67% 30.02 in 10.0 mi West 10.4 mph - N/A   Clear
1:53 AM 36.0 °F 28.0 °F 24.1 °F 62% 29.98 in 10.0 mi West 11.5 mph - N/A   Clear
2:53 AM 32.0 °F 23.6 °F 23.0 °F 69% 29.96 in 10.0 mi WSW 10.4 mph - N/A   Clear
3:53 AM 32.0 °F 24.8 °F 21.9 °F 66% 29.93 in 10.0 mi West 8.1 mph - N/A   Clear
4:53 AM 28.9 °F 21.1 °F 21.0 °F 72% 29.93 in 10.0 mi WSW 8.1 mph - N/A   Clear
5:53 AM 30.9 °F 23.5 °F 21.9 °F 69% 29.92 in 10.0 mi WSW 8.1 mph - N/A   Clear
6:53 AM 36.0 °F 28.0 °F 21.0 °F 55% 29.92 in 10.0 mi West 11.5 mph - N/A   Clear
7:53 AM 37.0 °F 30.4 °F 24.1 °F 59% 29.91 in 10.0 mi WSW 9.2 mph - N/A   Clear
8:53 AM 48.2 °F - 26.6 °F 43% 29.86 in 10.0 mi WSW 11.5 mph - N/A   Clear
9:53 AM 55.9 °F - 24.1 °F 29% 29.87 in 10.0 mi WSW 9.2 mph - N/A   Clear
10:53 AM 62.1 °F - 25.0 °F 24% 29.88 in 10.0 mi WNW 12.7 mph - N/A   Clear
11:53 AM 70.0 °F - 21.9 °F 16% 29.86 in 10.0 mi NW 17.3 mph 21.9 mph N/A   Clear
12:53 PM 72.0 °F - 18.0 °F 13% 29.83 in 10.0 mi NW 23.0 mph 36.8 mph N/A   Clear
1:53 PM 71.1 °F - 19.0 °F 14% 29.83 in 10.0 mi NW 24.2 mph 36.8 mph N/A   Clear
2:53 PM 70.0 °F - 17.1 °F 13% 29.87 in 10.0 mi NW 26.5 mph 41.4 mph N/A   Clear
3:53 PM 64.0 °F - 19.9 °F 18% 29.95 in 10.0 mi NW 21.9 mph 31.1 mph N/A   Clear
4:53 PM 59.0 °F - 21.0 °F 23% 30.01 in 10.0 mi NW 12.7 mph - N/A   Clear
5:53 PM 50.0 °F - 23.0 °F 35% 30.05 in 10.0 mi WNW 11.5 mph - N/A   Clear
6:53 PM 48.9 °F - 24.1 °F 38% 30.10 in 10.0 mi NW 10.4 mph - N/A   Clear
7:53 PM 44.1 °F 37.7 °F 25.0 °F 47% 30.15 in 10.0 mi NW 12.7 mph - N/A   Clear
8:53 PM 37.0 °F 30.4 °F 26.1 °F 65% 30.20 in 10.0 mi North 9.2 mph - N/A   Clear
9:53 PM 32.0 °F 25.6 °F 25.0 °F 75% 30.23 in 10.0 mi North 6.9 mph - N/A   Clear
10:53 PM 30.9 °F 25.2 °F 24.1 °F 76% 30.23 in 10.0 mi NNW 5.8 mph - N/A   Clear
11:53 PM 28.9 °F 20.4 °F 23.0 °F 78% 30.24 in 10.0 mi North 9.2 mph - N/A   Clear